Laurinburg-Maxton, NC

9:20 AM EDT on March 24, 2017 (GMT -0400)
Laurinburg-Maxton

Weather History for KMEB - March, 2014

Change the Weather History Date:

Thursday, March 27, 2014

  Actual Average (KHFF) Record (KHFF)
Temperature  
Mean Temperature 42 °F -  
Max Temperature 61 °F 64 °F 82 °F (2007)
Min Temperature 25 °F 43 °F 23 °F (2014)
Degree Days  
Heating Degree Days 22    
Moisture  
Dew Point 27 °F    
Average Humidity 59    
Maximum Humidity 92    
Minimum Humidity 26    
Precipitation  
Precipitation 0.00 in - - ()
Sea Level Pressure  
Sea Level Pressure 30.39 in    
Wind  
Wind Speed 5 mph (SSE)    
Max Wind Speed 14 mph    
Max Gust Speed 23 mph    
Visibility 10 miles    
Events      
Averages and records for this station are not official NWS values.
T = Trace of Precipitation, MM = Missing Value Source: NWS Daily Summary

Daily Weather History Graph

Daily Weather History Graph

Search for Another Location

Airport or City:

Trip Planner

Search our weather history database for the weather conditions in past years. The results will help you decide how hot, cold, wet, or windy it might be!

Date:

Astronomy

Mar. 27, 2014 Rise Set
Actual Time 7:11 AM EDT 7:34 PM EDT
Civil Twilight 6:46 AM EDT 8:00 PM EDT
Nautical Twilight 6:16 AM EDT 8:29 PM EDT
Astronomical Twilight 5:46 AM EDT 8:59 PM EDT
Moon 4:53 AM EDT (3/27) 4:27 PM EDT (3/27)
Length of Visible Light 13h 13m
Length of Day
12h 23m
Waning Crescent, 13% of the Moon is Illuminated
Mar 27
Waning Crescent
Mar 30
New
Apr 7
First Quarter
Apr 15
Full
Apr 22
Last Quarter

Hourly Weather History & Observations

Time (EDT) Temp. Windchill Dew Point Humidity Pressure Visibility Wind Dir Wind Speed Gust Speed Precip Events Conditions
12:52 AM 28.9 °F - 23.0 °F 78% 30.35 in 10.0 mi Calm Calm - N/A   Clear
1:52 AM 27.0 °F - 24.1 °F 89% 30.37 in 10.0 mi Calm Calm - N/A   Clear
2:52 AM 26.1 °F 20.5 °F 24.1 °F 92% 30.37 in 10.0 mi ENE 4.6 mph - N/A   Clear
3:52 AM 26.1 °F - 24.1 °F 92% 30.37 in 10.0 mi Calm Calm - N/A   Clear
4:52 AM 25.0 °F - 23.0 °F 92% 30.39 in 10.0 mi Calm Calm - N/A   Clear
5:52 AM 26.1 °F - 21.9 °F 84% 30.41 in 10.0 mi Calm Calm - N/A   Clear
6:52 AM 25.0 °F - 21.9 °F 88% 30.42 in 10.0 mi Calm Calm - N/A   Clear
7:52 AM 28.0 °F 22.8 °F 25.0 °F 88% 30.43 in 10.0 mi ENE 4.6 mph - N/A   Clear
8:52 AM 34.0 °F 31.0 °F 27.0 °F 75% 30.46 in 10.0 mi East 3.5 mph - N/A   Clear
9:52 AM 44.1 °F 39.5 °F 25.0 °F 47% 30.47 in 10.0 mi ESE 8.1 mph - N/A   Clear
10:52 AM 46.0 °F 41.4 °F 21.0 °F 37% 30.47 in 10.0 mi ESE 9.2 mph - N/A   Clear
11:52 AM 51.1 °F - 19.9 °F 29% 30.48 in 10.0 mi SSW 11.5 mph - N/A   Clear
12:52 PM 53.1 °F - 19.0 °F 26% 30.47 in 10.0 mi South 8.1 mph - N/A   Clear
1:52 PM 55.9 °F - 21.9 °F 27% 30.43 in 10.0 mi South 11.5 mph 19.6 mph N/A   Clear
2:52 PM 57.9 °F - 23.0 °F 26% 30.39 in 10.0 mi South 13.8 mph 23.0 mph N/A   Clear
3:52 PM 60.1 °F - 25.0 °F 26% 30.37 in 10.0 mi South 10.4 mph - N/A   Clear
4:52 PM 59.0 °F - 26.1 °F 28% 30.35 in 10.0 mi South 11.5 mph - N/A   Clear
5:52 PM 59.0 °F - 28.0 °F 31% 30.35 in 10.0 mi South 11.5 mph - N/A   Clear
6:52 PM 57.0 °F - 32.0 °F 39% 30.33 in 10.0 mi South 9.2 mph - N/A   Clear
7:52 PM 53.1 °F - 36.0 °F 52% 30.32 in 10.0 mi South 11.5 mph - N/A   Clear
8:52 PM 51.1 °F - 37.9 °F 61% 30.32 in 10.0 mi South 11.5 mph - N/A   Clear
9:52 PM 48.9 °F - 37.9 °F 66% 30.35 in 10.0 mi South 9.2 mph - N/A   Clear
10:52 PM 46.9 °F - 37.9 °F 71% 30.34 in 10.0 mi South 8.1 mph - N/A   Clear
11:52 PM 44.1 °F 40.1 °F 37.9 °F 79% 30.31 in 10.0 mi South 6.9 mph - N/A   Clear